THY6251 OERK-LTFM

Flight info

Callsign THY6251
Flight time N/A
Altitude 40000
Route IVONU Z710 GAS G662 ASH B544 MODAD L768 FIRAS R655 KTN Q538 ALE M861 NISAP UM861 BUK UL615 ERSEN
Aircraft A333/H-SDE3GHIJ2J3J5M1RVWXY/LB2D1

Departure

Time 2026-04-30 19:22
Airport King Khalid International Airport (OERK)

Arrival

Time N/A
Airport İstanbul Airport (LTFM)
Time Latitude Longitude Altitude Speed Heading
2026-04-30 18:24 24.94292 46.71303 2081 ft 0 kts 240°
2026-04-30 19:07 24.94310 46.71334 2055 ft 4 kts 234°
2026-04-30 19:07 24.94326 46.71357 2084 ft 4 kts 227°
2026-04-30 19:08 24.94368 46.71386 2079 ft 4 kts 160°
2026-04-30 19:08 24.94373 46.71384 2081 ft 5 kts 150°
2026-04-30 19:10 24.94362 46.71390 2078 ft 3 kts 150°
2026-04-30 19:10 24.94357 46.71393 2077 ft 0 kts 150°
2026-04-30 19:11 24.94310 46.71423 2079 ft 10 kts 150°
2026-04-30 19:11 24.94253 46.71459 2076 ft 11 kts 150°
2026-04-30 19:12 24.94212 46.71523 2079 ft 11 kts 83°
2026-04-30 19:12 24.94247 46.71605 2078 ft 12 kts 60°
2026-04-30 19:12 24.94292 46.71693 2080 ft 14 kts 60°
2026-04-30 19:13 24.94392 46.71884 2079 ft 14 kts 58°
2026-04-30 19:13 24.94565 46.71828 2079 ft 18 kts 330°
2026-04-30 19:13 24.94683 46.71754 2081 ft 21 kts 330°
2026-04-30 19:14 24.94821 46.71667 2078 ft 25 kts 330°
2026-04-30 19:14 24.94973 46.71570 2079 ft 25 kts 329°
2026-04-30 19:14 24.95129 46.71473 2079 ft 26 kts 330°
2026-04-30 19:14 24.95285 46.71373 2078 ft 26 kts 330°
2026-04-30 19:15 24.95448 46.71270 2078 ft 27 kts 329°
2026-04-30 19:15 24.95765 46.71070 2077 ft 26 kts 329°
2026-04-30 19:15 24.95926 46.70968 2078 ft 27 kts 330°
2026-04-30 19:16 24.96088 46.70865 2079 ft 27 kts 330°
2026-04-30 19:16 24.96254 46.70761 2076 ft 28 kts 330°
2026-04-30 19:16 24.96582 46.70554 2075 ft 27 kts 330°
2026-04-30 19:17 24.96719 46.70467 2075 ft 18 kts 330°
2026-04-30 19:17 24.96947 46.70322 2076 ft 20 kts 330°
2026-04-30 19:17 24.97073 46.70243 2074 ft 22 kts 330°
2026-04-30 19:18 24.97300 46.70100 2077 ft 23 kts 330°
2026-04-30 19:18 24.97468 46.69996 2074 ft 15 kts 330°
2026-04-30 19:18 24.97556 46.69999 2078 ft 14 kts 38°
2026-04-30 19:19 24.97599 46.70063 2076 ft 0 kts 59°
2026-04-30 19:19 24.97608 46.70078 2074 ft 5 kts 59°
2026-04-30 19:20 24.97630 46.70126 2075 ft 9 kts 71°
2026-04-30 19:20 24.97622 46.70205 2075 ft 12 kts 112°
2026-04-30 19:20 24.97552 46.70287 2074 ft 0 kts 147°
2026-04-30 19:21 24.97551 46.70288 2076 ft 2 kts 147°
2026-04-30 19:21 24.96926 46.70684 2076 ft 125 kts 150°
2026-04-30 19:22 24.94736 46.71993 3072 ft 207 kts 144°
2026-04-30 19:22 24.90886 46.75154 5193 ft 243 kts 135°
2026-04-30 19:23 24.86807 46.78887 6526 ft 262 kts 150°
2026-04-30 19:24 24.83568 46.80793 7455 ft 266 kts 154°
2026-04-30 19:24 24.81918 46.81733 7862 ft 269 kts 154°
2026-04-30 19:24 24.78463 46.83433 8733 ft 275 kts 165°
2026-04-30 19:25 24.72836 46.85022 10053 ft 284 kts 170°
2026-04-30 19:26 24.68824 46.86396 10907 ft 326 kts 153°
2026-04-30 19:26 24.65853 46.90579 11529 ft 382 kts 111°
2026-04-30 19:26 24.65462 46.93525 12033 ft 398 kts 90°
2026-04-30 19:27 24.67105 46.99438 13182 ft 416 kts 63°
2026-04-30 19:27 24.70810 47.04243 14328 ft 415 kts 27°
2026-04-30 19:28 24.73431 47.05463 14969 ft 407 kts
2026-04-30 19:28 24.78909 47.05289 16060 ft 393 kts 343°
2026-04-30 19:29 24.83398 47.04290 16960 ft 398 kts 343°
2026-04-30 19:29 24.87009 47.03460 17702 ft 402 kts 343°
2026-04-30 19:30 24.95331 47.01509 19276 ft 412 kts 343°
2026-04-30 19:30 25.00025 47.00408 20137 ft 417 kts 343°
2026-04-30 19:31 25.05627 46.98765 21187 ft 415 kts 332°
2026-04-30 19:31 25.08109 46.97193 21751 ft 409 kts 318°
2026-04-30 19:31 25.11590 46.92417 22887 ft 400 kts 295°
2026-04-30 19:32 25.12836 46.89655 23324 ft 403 kts 291°
2026-04-30 19:32 25.13949 46.86797 23738 ft 407 kts 289°
2026-04-30 19:32 25.15011 46.83896 24145 ft 409 kts 289°
2026-04-30 19:32 25.16073 46.80971 24585 ft 411 kts 289°
2026-04-30 19:33 25.17153 46.78043 25018 ft 413 kts 289°
2026-04-30 19:33 25.18258 46.75108 25458 ft 415 kts 289°
2026-04-30 19:33 25.19385 46.72160 25878 ft 417 kts 289°
2026-04-30 19:33 25.20527 46.69206 26319 ft 419 kts 289°
2026-04-30 19:34 25.21665 46.66279 26750 ft 421 kts 289°
2026-04-30 19:34 25.22825 46.63299 27170 ft 423 kts 289°
2026-04-30 19:34 25.25156 46.57302 27965 ft 427 kts 289°
2026-04-30 19:35 25.26326 46.54285 28414 ft 428 kts 289°
2026-04-30 19:35 25.27498 46.51262 28811 ft 429 kts 288°
2026-04-30 19:35 25.28675 46.48217 29168 ft 432 kts 288°
2026-04-30 19:35 25.29858 46.45155 29521 ft 434 kts 288°
2026-04-30 19:36 25.31047 46.42077 29867 ft 436 kts 288°
2026-04-30 19:36 25.32239 46.38987 30197 ft 438 kts 288°
2026-04-30 19:36 25.34625 46.32800 30764 ft 440 kts 288°
2026-04-30 19:37 25.35825 46.29686 31117 ft 440 kts 288°
2026-04-30 19:37 25.37026 46.26569 31461 ft 440 kts 287°
2026-04-30 19:37 25.38222 46.23459 31798 ft 440 kts 287°
2026-04-30 19:37 25.39418 46.20350 32132 ft 439 kts 287°
2026-04-30 19:38 25.40614 46.17235 32456 ft 439 kts 287°
2026-04-30 19:38 25.41807 46.14127 32814 ft 439 kts 286°
2026-04-30 19:38 25.42997 46.11022 33139 ft 439 kts 286°
2026-04-30 19:38 25.44187 46.07916 33507 ft 438 kts 286°
2026-04-30 19:39 25.45382 46.04797 33859 ft 437 kts 285°
2026-04-30 19:39 25.46567 46.01699 34134 ft 437 kts 285°
2026-04-30 19:39 25.47745 45.98615 34390 ft 438 kts 285°
2026-04-30 19:39 25.48935 45.95498 34653 ft 438 kts 285°
2026-04-30 19:40 25.50123 45.92385 34918 ft 438 kts 285°
2026-04-30 19:40 25.51294 45.89316 35205 ft 437 kts 285°
2026-04-30 19:40 25.52474 45.86220 35481 ft 436 kts 285°
2026-04-30 19:40 25.53659 45.83112 35750 ft 436 kts 286°
2026-04-30 19:41 25.54829 45.80037 36043 ft 436 kts 286°
2026-04-30 19:41 25.56012 45.76927 36394 ft 434 kts 285°
2026-04-30 19:41 25.57181 45.73854 36742 ft 432 kts 285°
2026-04-30 19:41 25.58325 45.70840 37022 ft 431 kts 285°
2026-04-30 19:42 25.59488 45.67775 37295 ft 431 kts 285°
2026-04-30 19:42 25.60663 45.64675 37579 ft 431 kts 285°
2026-04-30 19:42 25.61814 45.61633 37839 ft 430 kts 285°
2026-04-30 19:42 25.62962 45.58599 37984 ft 431 kts 286°
2026-04-30 19:43 25.65273 45.52486 37984 ft 429 kts 286°
2026-04-30 19:44 25.68723 45.43347 37986 ft 428 kts 286°
2026-04-30 19:44 25.71020 45.37247 37989 ft 429 kts 286°
2026-04-30 19:45 25.73313 45.31152 37986 ft 427 kts 286°
2026-04-30 19:45 25.75600 45.25066 37981 ft 427 kts 285°
2026-04-30 19:46 25.77882 45.18979 37986 ft 427 kts 285°
2026-04-30 19:46 25.80142 45.12948 37979 ft 425 kts 285°
2026-04-30 19:47 25.82408 45.06889 37979 ft 425 kts 285°
2026-04-30 19:47 25.84673 45.00820 37980 ft 425 kts 285°
2026-04-30 19:48 25.86935 44.94750 37977 ft 425 kts 285°
2026-04-30 19:48 25.89189 44.88697 37977 ft 424 kts 285°
2026-04-30 19:49 25.91439 44.82642 37975 ft 424 kts 285°
2026-04-30 19:49 25.94799 44.73584 37976 ft 424 kts 285°
2026-04-30 19:50 25.97047 44.67513 37974 ft 424 kts 285°
2026-04-30 19:50 25.99290 44.61446 38005 ft 424 kts 285°
2026-04-30 19:51 26.01512 44.55432 37973 ft 422 kts 285°
2026-04-30 19:51 26.03738 44.49398 37972 ft 421 kts 285°
2026-04-30 19:52 26.05949 44.43386 37969 ft 421 kts 285°
2026-04-30 19:52 26.08172 44.37339 37970 ft 419 kts 285°
2026-04-30 19:53 26.10359 44.31384 37969 ft 417 kts 285°
2026-04-30 19:53 26.12542 44.25426 37969 ft 417 kts 285°
2026-04-30 19:54 26.14736 44.19423 37952 ft 417 kts 285°
2026-04-30 19:54 26.16903 44.13496 37973 ft 415 kts 285°
2026-04-30 19:55 26.19075 44.07541 37971 ft 415 kts 285°
2026-04-30 19:55 26.21242 44.01591 37994 ft 415 kts 284°
2026-04-30 19:56 26.23407 43.95638 37980 ft 414 kts 284°
2026-04-30 19:56 26.25566 43.89692 37988 ft 414 kts 284°
2026-04-30 19:57 26.27725 43.83734 37991 ft 414 kts 284°
2026-04-30 19:57 26.30009 43.77866 37997 ft 420 kts 290°
2026-04-30 19:58 26.32945 43.72205 37998 ft 423 kts 292°
2026-04-30 19:58 26.36016 43.66603 37989 ft 424 kts 293°
2026-04-30 19:59 26.39115 43.60999 37998 ft 424 kts 293°
2026-04-30 20:00 26.43708 43.52640 37989 ft 423 kts 293°
2026-04-30 20:00 26.46781 43.47019 37988 ft 423 kts 293°
2026-04-30 20:01 26.51348 43.38648 37991 ft 422 kts 293°
2026-04-30 20:01 26.54414 43.33022 38012 ft 422 kts 293°
2026-04-30 20:02 26.58976 43.24636 37996 ft 421 kts 293°
2026-04-30 20:03 26.63509 43.16290 37998 ft 420 kts 293°
2026-04-30 20:03 26.66556 43.10673 37998 ft 420 kts 293°
2026-04-30 20:04 26.69572 43.05107 38002 ft 420 kts 293°
2026-04-30 20:05 26.74107 42.96725 38009 ft 419 kts 293°
2026-04-30 20:05 26.78622 42.88364 38010 ft 418 kts 293°
2026-04-30 20:06 26.81605 42.82831 38013 ft 418 kts 293°
2026-04-30 20:06 26.84612 42.77246 38016 ft 418 kts 293°
2026-04-30 20:07 26.87603 42.71684 38015 ft 418 kts 293°
2026-04-30 20:08 26.92111 42.63288 38016 ft 418 kts 293°
2026-04-30 20:08 26.95089 42.57734 38019 ft 417 kts 293°
2026-04-30 20:09 26.98076 42.52158 38020 ft 417 kts 293°
2026-04-30 20:09 27.02552 42.43783 38021 ft 417 kts 293°
2026-04-30 20:10 27.07001 42.35445 38027 ft 416 kts 293°
2026-04-30 20:11 27.11458 42.27075 38028 ft 416 kts 293°
2026-04-30 20:11 27.14426 42.21490 38029 ft 416 kts 293°
2026-04-30 20:12 27.18861 42.13133 38031 ft 416 kts 293°
2026-04-30 20:13 27.21823 42.07543 38033 ft 416 kts 293°
2026-04-30 20:13 27.24785 42.01948 38031 ft 416 kts 293°
2026-04-30 20:14 27.27726 41.96381 38054 ft 416 kts 293°
2026-04-30 20:14 27.30677 41.90791 38026 ft 415 kts 293°
2026-04-30 20:15 27.33614 41.85219 38041 ft 415 kts 293°
2026-04-30 20:15 27.36567 41.79611 38047 ft 415 kts 293°
2026-04-30 20:16 27.39501 41.74031 38041 ft 415 kts 293°
2026-04-30 20:16 27.42666 41.68595 38047 ft 423 kts 301°
2026-04-30 20:17 27.46817 41.63789 38048 ft 432 kts 307°
2026-04-30 20:17 27.51244 41.59180 38066 ft 435 kts 308°
2026-04-30 20:18 27.55736 41.54584 38049 ft 434 kts 309°
2026-04-30 20:18 27.60180 41.50026 38045 ft 431 kts 308°
2026-04-30 20:19 27.64603 41.45455 38044 ft 431 kts 308°
2026-04-30 20:19 27.68997 41.40898 38040 ft 431 kts 308°
2026-04-30 20:20 27.73398 41.36324 38038 ft 431 kts 308°
2026-04-30 20:20 27.77820 41.31724 38039 ft 430 kts 308°
2026-04-30 20:21 27.82209 41.27155 38039 ft 429 kts 308°
2026-04-30 20:21 27.86585 41.22593 38038 ft 429 kts 308°
2026-04-30 20:22 27.90969 41.18017 38036 ft 429 kts 308°
2026-04-30 20:22 27.95370 41.13419 38042 ft 429 kts 308°
2026-04-30 20:23 27.99737 41.08855 38041 ft 428 kts 308°
2026-04-30 20:23 28.04111 41.04276 38043 ft 427 kts 308°
2026-04-30 20:24 28.08477 40.99700 38048 ft 427 kts 308°
2026-04-30 20:24 28.12834 40.95129 38043 ft 426 kts 308°
2026-04-30 20:25 28.19316 40.88316 38050 ft 426 kts 308°
2026-04-30 20:26 28.25109 40.82217 38050 ft 425 kts 308°
2026-04-30 20:26 28.32301 40.74632 38049 ft 425 kts 308°
2026-04-30 20:27 28.40226 40.66259 38049 ft 425 kts 308°
2026-04-30 20:28 28.48905 40.57070 38050 ft 425 kts 308°
2026-04-30 20:30 28.59685 40.45626 38057 ft 425 kts 308°
2026-04-30 20:31 28.72590 40.31879 38053 ft 423 kts 308°
2026-04-30 20:32 28.83310 40.20423 38045 ft 424 kts 308°
2026-04-30 20:33 28.89737 40.13540 38045 ft 424 kts 308°
2026-04-30 20:34 28.96184 40.06622 38065 ft 424 kts 308°
2026-04-30 20:35 29.02608 39.99716 38056 ft 424 kts 308°
2026-04-30 20:35 29.09072 39.92754 38054 ft 425 kts 308°
2026-04-30 20:36 29.13378 39.88109 38053 ft 425 kts 308°
2026-04-30 20:37 29.19792 39.81176 38053 ft 425 kts 308°
2026-04-30 20:37 29.24184 39.76613 38056 ft 431 kts 313°
2026-04-30 20:38 29.29464 39.73090 38051 ft 451 kts 328°
2026-04-30 20:38 29.35409 39.70627 38051 ft 457 kts 332°
2026-04-30 20:39 29.44496 39.67339 38084 ft 458 kts 333°
2026-04-30 20:40 29.53630 39.63997 38050 ft 459 kts 332°
2026-04-30 20:40 29.59677 39.61748 38053 ft 459 kts 332°
2026-04-30 20:41 29.68772 39.58351 38046 ft 459 kts 332°
2026-04-30 20:41 29.74859 39.56074 38038 ft 459 kts 332°
2026-04-30 20:42 29.80945 39.53797 38055 ft 459 kts 332°
2026-04-30 20:43 29.90063 39.50378 38044 ft 459 kts 332°
2026-04-30 20:43 29.96144 39.48096 38064 ft 459 kts 333°
2026-04-30 20:44 30.05252 39.44673 38039 ft 461 kts 333°
2026-04-30 20:45 30.17411 39.40092 38046 ft 461 kts 333°
2026-04-30 20:45 30.23530 39.37782 38043 ft 461 kts 333°
2026-04-30 20:46 30.35738 39.33163 38039 ft 461 kts 333°
2026-04-30 20:47 30.44837 39.29713 38035 ft 461 kts 333°
2026-04-30 20:48 30.53978 39.26241 38040 ft 461 kts 333°
2026-04-30 20:48 30.60089 39.23915 38044 ft 461 kts 333°
2026-04-30 20:49 30.66169 39.21598 38047 ft 461 kts 333°
2026-04-30 20:50 30.75320 39.18104 38037 ft 461 kts 333°
2026-04-30 20:50 30.81398 39.15781 38040 ft 461 kts 333°
2026-04-30 20:51 30.87466 39.13458 38037 ft 461 kts 333°
2026-04-30 20:51 30.96602 39.09955 38031 ft 460 kts 333°
2026-04-30 20:52 31.02699 39.07613 38038 ft 459 kts 334°
2026-04-30 20:53 31.11766 39.04124 38028 ft 458 kts 334°
2026-04-30 20:53 31.17854 39.01777 38020 ft 459 kts 334°
2026-04-30 20:54 31.26912 38.98280 38026 ft 458 kts 334°
2026-04-30 20:55 31.35967 38.94778 38031 ft 458 kts 334°
2026-04-30 20:55 31.42031 38.92427 38024 ft 458 kts 334°
2026-04-30 20:56 31.51090 38.88910 38038 ft 458 kts 334°
2026-04-30 20:57 31.60169 38.85379 38018 ft 458 kts 334°
2026-04-30 20:57 31.66233 38.83016 38024 ft 458 kts 334°
2026-04-30 20:58 31.75281 38.79485 38020 ft 458 kts 334°
2026-04-30 20:58 31.81334 38.77119 38019 ft 458 kts 334°
2026-04-30 20:59 31.90409 38.73565 38016 ft 458 kts 334°
2026-04-30 21:00 32.02770 38.69535 38021 ft 465 kts 339°
2026-04-30 21:01 32.12182 38.66887 38001 ft 465 kts 339°
2026-04-30 21:02 32.21608 38.64147 38032 ft 464 kts 339°
2026-04-30 21:02 32.27890 38.62300 38005 ft 465 kts 339°
2026-04-30 21:03 32.34138 38.60460 38003 ft 465 kts 339°
2026-04-30 21:03 32.40418 38.58609 38005 ft 465 kts 339°
2026-04-30 21:04 32.46699 38.56757 38011 ft 465 kts 340°
2026-04-30 21:04 32.56124 38.53973 38005 ft 465 kts 340°
2026-04-30 21:05 32.62382 38.52121 38006 ft 465 kts 340°
2026-04-30 21:05 32.68672 38.50257 38003 ft 465 kts 340°
2026-04-30 21:06 32.74964 38.48389 37998 ft 466 kts 340°
2026-04-30 21:06 32.81256 38.46519 37996 ft 466 kts 340°
2026-04-30 21:07 32.87516 38.44656 37999 ft 466 kts 340°
2026-04-30 21:07 32.93813 38.42779 38019 ft 466 kts 340°
2026-04-30 21:08 33.00103 38.40901 37998 ft 465 kts 340°
2026-04-30 21:08 33.06347 38.39035 37996 ft 465 kts 340°
2026-04-30 21:09 33.12603 38.37041 37993 ft 461 kts 335°
2026-04-30 21:09 33.18421 38.33968 37998 ft 456 kts 329°
2026-04-30 21:10 33.24100 38.30572 37993 ft 455 kts 328°
2026-04-30 21:10 33.29729 38.27105 37991 ft 455 kts 328°
2026-04-30 21:11 33.35329 38.23657 37991 ft 455 kts 328°
2026-04-30 21:11 33.40964 38.20203 37990 ft 455 kts 328°
2026-04-30 21:12 33.46600 38.16755 37989 ft 454 kts 328°
2026-04-30 21:12 33.52226 38.13338 37988 ft 453 kts 328°
2026-04-30 21:13 33.57829 38.09938 37987 ft 453 kts 328°
2026-04-30 21:13 33.63460 38.06513 37989 ft 453 kts 328°
2026-04-30 21:14 33.69050 38.03106 37987 ft 453 kts 328°
2026-04-30 21:14 33.74679 37.99669 37988 ft 453 kts 328°
2026-04-30 21:15 33.80304 37.96230 37990 ft 453 kts 328°
2026-04-30 21:15 33.85665 37.92321 37986 ft 445 kts 317°
2026-04-30 21:16 33.89789 37.86972 37998 ft 436 kts 302°
2026-04-30 21:16 33.93147 37.80884 37995 ft 436 kts 299°
2026-04-30 21:17 33.96349 37.74675 37992 ft 436 kts 299°
2026-04-30 21:17 33.99528 37.68495 38005 ft 436 kts 299°
2026-04-30 21:18 34.02745 37.62293 38002 ft 436 kts 299°
2026-04-30 21:18 34.05973 37.56092 38004 ft 436 kts 299°
2026-04-30 21:19 34.09197 37.49892 38004 ft 436 kts 299°
2026-04-30 21:19 34.12401 37.43720 38014 ft 436 kts 299°
2026-04-30 21:20 34.15630 37.37494 38013 ft 437 kts 300°
2026-04-30 21:20 34.19566 37.31868 38015 ft 443 kts 315°
2026-04-30 21:21 34.24778 37.27871 38015 ft 453 kts 333°
2026-04-30 21:21 34.30984 37.26142 38014 ft 466 kts 351°
2026-04-30 21:22 34.34232 37.25919 38015 ft 468 kts 353°
2026-04-30 21:23 34.47258 37.25659 38010 ft 469 kts 354°
2026-04-30 21:23 34.55957 37.25458 38013 ft 469 kts 354°
2026-04-30 21:24 34.62483 37.25273 38014 ft 469 kts 354°
2026-04-30 21:24 34.69014 37.25084 38011 ft 468 kts 354°
2026-04-30 21:25 34.78758 37.24804 38013 ft 468 kts 354°
2026-04-30 21:26 34.88541 37.24523 38018 ft 468 kts 354°
2026-04-30 21:27 34.98286 37.24243 38002 ft 468 kts 354°
2026-04-30 21:27 35.04812 37.24056 38012 ft 468 kts 354°
2026-04-30 21:28 35.14610 37.23773 38011 ft 469 kts 354°
2026-04-30 21:29 35.24355 37.23492 38014 ft 469 kts 354°
2026-04-30 21:30 35.40679 37.23019 38001 ft 469 kts 354°
2026-04-30 21:31 35.56982 37.22546 37997 ft 470 kts 354°
2026-04-30 21:32 35.66747 37.22262 38000 ft 470 kts 354°
2026-04-30 21:32 35.73307 37.22071 37998 ft 471 kts 354°
2026-04-30 21:33 35.83149 37.21784 38012 ft 471 kts 354°
2026-04-30 21:34 35.89712 37.21592 38010 ft 472 kts 354°
2026-04-30 21:34 35.99553 37.21309 38031 ft 472 kts 355°
2026-04-30 21:35 36.06111 37.21167 38043 ft 472 kts 355°
2026-04-30 21:35 36.12699 37.20929 38049 ft 470 kts 350°
2026-04-30 21:36 36.18923 37.19048 38048 ft 460 kts 333°
2026-04-30 21:37 36.26956 37.12777 38056 ft 454 kts 320°
2026-04-30 21:37 36.29481 37.10423 38037 ft 455 kts 319°
2026-04-30 21:37 36.34515 37.05653 38027 ft 455 kts 319°
2026-04-30 21:38 36.39564 37.00889 38017 ft 455 kts 319°
2026-04-30 21:38 36.44586 36.96162 38006 ft 455 kts 319°
2026-04-30 21:39 36.49652 36.91396 38009 ft 455 kts 319°
2026-04-30 21:39 36.54683 36.86658 38007 ft 455 kts 319°
2026-04-30 21:40 36.59749 36.81877 38006 ft 455 kts 319°
2026-04-30 21:40 36.64767 36.77133 38015 ft 455 kts 319°
2026-04-30 21:41 36.69827 36.72342 38007 ft 455 kts 319°
2026-04-30 21:41 36.74870 36.67559 38012 ft 455 kts 319°
2026-04-30 21:42 36.79876 36.62790 38011 ft 455 kts 319°
2026-04-30 21:42 36.84892 36.57938 38022 ft 455 kts 319°
2026-04-30 21:43 36.89864 36.53102 38018 ft 455 kts 319°
2026-04-30 21:43 36.94862 36.48237 38004 ft 455 kts 319°
2026-04-30 21:44 36.99867 36.43375 38003 ft 455 kts 319°
2026-04-30 21:44 37.04866 36.38517 38002 ft 455 kts 319°
2026-04-30 21:45 37.09864 36.33652 38003 ft 455 kts 319°
2026-04-30 21:45 37.14859 36.28781 38003 ft 455 kts 319°
2026-04-30 21:46 37.19825 36.23929 38011 ft 455 kts 319°
2026-04-30 21:46 37.24847 36.19014 38010 ft 454 kts 319°
2026-04-30 21:47 37.29798 36.14160 38009 ft 454 kts 319°
2026-04-30 21:47 37.34775 36.09271 38021 ft 454 kts 319°
2026-04-30 21:48 37.39755 36.04372 38017 ft 454 kts 318°
2026-04-30 21:48 37.44728 35.99470 38018 ft 454 kts 318°
2026-04-30 21:49 37.49706 35.94556 38021 ft 454 kts 318°
2026-04-30 21:49 37.54670 35.89648 38024 ft 455 kts 318°
2026-04-30 21:50 37.59646 35.84720 38040 ft 455 kts 318°
2026-04-30 21:50 37.64612 35.79793 38038 ft 454 kts 318°
2026-04-30 21:51 37.69573 35.74861 38060 ft 455 kts 318°
2026-04-30 21:51 37.74523 35.69933 38045 ft 454 kts 318°
2026-04-30 21:52 37.79493 35.64976 38051 ft 454 kts 318°
2026-04-30 21:52 37.84426 35.60046 38056 ft 454 kts 318°
2026-04-30 21:53 37.89382 35.55084 38054 ft 454 kts 318°
2026-04-30 21:53 37.94331 35.50122 38054 ft 454 kts 318°
2026-04-30 21:54 37.99281 35.45154 38056 ft 453 kts 318°
2026-04-30 21:54 38.04219 35.40185 38051 ft 453 kts 318°
2026-04-30 21:55 38.09155 35.35208 38048 ft 453 kts 318°
2026-04-30 21:55 38.14088 35.30227 38052 ft 453 kts 318°
2026-04-30 21:56 38.18993 35.25266 38048 ft 453 kts 318°
2026-04-30 21:56 38.23918 35.20274 38047 ft 452 kts 317°
2026-04-30 21:57 38.28826 35.15292 38045 ft 451 kts 317°
2026-04-30 21:57 38.33731 35.10304 38045 ft 451 kts 317°
2026-04-30 21:58 38.38632 35.05315 38044 ft 451 kts 317°
2026-04-30 21:58 38.43540 35.00325 38045 ft 451 kts 317°
2026-04-30 21:59 38.48440 34.95339 38031 ft 450 kts 317°
2026-04-30 22:00 38.55773 34.87859 38034 ft 450 kts 317°
2026-04-30 22:00 38.63094 34.80367 38042 ft 450 kts 317°
2026-04-30 22:01 38.67958 34.75376 38047 ft 449 kts 317°
2026-04-30 22:01 38.72845 34.70355 38044 ft 449 kts 317°
2026-04-30 22:02 38.77714 34.65342 38046 ft 449 kts 317°
2026-04-30 22:02 38.82552 34.60353 38046 ft 449 kts 317°
2026-04-30 22:03 38.87424 34.55319 38049 ft 449 kts 317°
2026-04-30 22:03 38.92296 34.50277 38042 ft 449 kts 317°
2026-04-30 22:04 38.97157 34.45235 38040 ft 450 kts 317°
2026-04-30 22:05 39.04433 34.37673 38030 ft 451 kts 317°
2026-04-30 22:05 39.09307 34.32597 38027 ft 450 kts 317°
2026-04-30 22:06 39.14176 34.27518 38025 ft 451 kts 317°
2026-04-30 22:06 39.21488 34.19891 38034 ft 450 kts 317°
2026-04-30 22:07 39.26348 34.14814 38019 ft 449 kts 317°
2026-04-30 22:07 39.31208 34.09724 38022 ft 449 kts 317°
2026-04-30 22:08 39.36058 34.04636 38022 ft 449 kts 317°
2026-04-30 22:08 39.40905 33.99542 38019 ft 449 kts 317°
2026-04-30 22:09 39.45754 33.94436 38021 ft 449 kts 316°
2026-04-30 22:09 39.50593 33.89331 38012 ft 449 kts 316°
2026-04-30 22:10 39.55405 33.84247 38014 ft 449 kts 317°
2026-04-30 22:10 39.60247 33.79121 38009 ft 449 kts 316°
2026-04-30 22:11 39.67491 33.71433 38010 ft 449 kts 316°
2026-04-30 22:12 39.72326 33.66290 38007 ft 449 kts 317°
2026-04-30 22:12 39.77159 33.61141 38007 ft 449 kts 316°
2026-04-30 22:13 39.81957 33.56019 38000 ft 449 kts 316°
2026-04-30 22:13 39.86784 33.50855 37999 ft 449 kts 316°
2026-04-30 22:14 39.91634 33.45658 38001 ft 449 kts 316°
2026-04-30 22:14 39.96402 33.40474 37996 ft 447 kts 313°
2026-04-30 22:15 40.00328 33.34299 38005 ft 439 kts 297°
2026-04-30 22:15 40.03096 33.27227 38022 ft 437 kts 291°
2026-04-30 22:16 40.05111 33.21191 38010 ft 436 kts 290°
2026-04-30 22:17 40.09873 33.06604 37993 ft 437 kts 290°
2026-04-30 22:17 40.13499 32.95695 37992 ft 436 kts 291°
2026-04-30 22:18 40.17122 32.84785 37994 ft 436 kts 291°
2026-04-30 22:19 40.20722 32.73895 38023 ft 436 kts 291°
2026-04-30 22:20 40.24310 32.62992 38009 ft 434 kts 290°
2026-04-30 22:20 40.27876 32.52113 38009 ft 434 kts 290°
2026-04-30 22:21 40.30249 32.44848 38010 ft 433 kts 290°
2026-04-30 22:21 40.32605 32.37618 38005 ft 431 kts 290°
2026-04-30 22:22 40.34936 32.30446 38003 ft 430 kts 290°
2026-04-30 22:22 40.37283 32.23205 38005 ft 431 kts 290°
2026-04-30 22:23 40.39624 32.15966 37997 ft 430 kts 290°
2026-04-30 22:23 40.41952 32.08748 38005 ft 429 kts 290°
2026-04-30 22:24 40.44276 32.01524 38000 ft 429 kts 290°
2026-04-30 22:24 40.46578 31.94348 38009 ft 429 kts 290°
2026-04-30 22:25 40.48905 31.87078 38005 ft 430 kts 290°
2026-04-30 22:25 40.51207 31.79864 38010 ft 431 kts 290°
2026-04-30 22:26 40.54676 31.68961 38019 ft 431 kts 290°
2026-04-30 22:27 40.56988 31.61669 37911 ft 430 kts 290°
2026-04-30 22:27 40.58137 31.58039 37633 ft 430 kts 290°
2026-04-30 22:27 40.60418 31.50813 37007 ft 430 kts 290°
2026-04-30 22:28 40.62712 31.43527 36384 ft 432 kts 289°
2026-04-30 22:28 40.63862 31.39866 36081 ft 432 kts 289°
2026-04-30 22:29 40.67300 31.28900 35206 ft 432 kts 289°
2026-04-30 22:29 40.68445 31.25239 34913 ft 432 kts 289°
2026-04-30 22:30 40.73022 31.10546 33722 ft 434 kts 289°
2026-04-30 22:31 40.76432 30.99552 32778 ft 433 kts 289°
2026-04-30 22:32 40.79851 30.88479 31842 ft 435 kts 289°
2026-04-30 22:32 40.82133 30.81065 31248 ft 437 kts 289°
2026-04-30 22:33 40.85556 30.69873 30350 ft 427 kts 287°
2026-04-30 22:33 40.86960 30.62546 29804 ft 399 kts 276°
2026-04-30 22:34 40.88084 30.51856 28982 ft 389 kts 278°
2026-04-30 22:35 40.89784 30.45117 28429 ft 390 kts 291°
2026-04-30 22:36 40.92562 30.31576 27177 ft 379 kts 279°
2026-04-30 22:36 40.93093 30.28175 26797 ft 377 kts 279°
2026-04-30 22:37 40.94679 30.18067 25686 ft 369 kts 279°
2026-04-30 22:37 40.95198 30.14757 25245 ft 366 kts 279°
2026-04-30 22:37 40.96221 30.08207 24308 ft 361 kts 279°
2026-04-30 22:38 40.97223 30.01769 23330 ft 357 kts 278°
2026-04-30 22:38 40.98215 29.95374 22261 ft 352 kts 278°
2026-04-30 22:39 40.98705 29.92214 21732 ft 349 kts 278°
2026-04-30 22:39 41.00145 29.82859 20228 ft 342 kts 277°
2026-04-30 22:40 41.01547 29.73717 18785 ft 334 kts 277°
2026-04-30 22:41 41.02890 29.64913 17551 ft 315 kts 277°
2026-04-30 22:41 41.03737 29.59334 16791 ft 303 kts 276°
2026-04-30 22:42 41.05346 29.48664 15295 ft 288 kts 276°
2026-04-30 22:43 41.06452 29.43558 14568 ft 297 kts 293°
2026-04-30 22:43 41.09513 29.39767 13859 ft 309 kts 320°
2026-04-30 22:44 41.13119 29.36691 13049 ft 305 kts 317°
2026-04-30 22:45 41.16997 29.27985 11529 ft 267 kts 262°
2026-04-30 22:45 41.15696 29.23541 10917 ft 260 kts 231°
2026-04-30 22:46 41.12881 29.20506 10340 ft 262 kts 217°
2026-04-30 22:47 41.06867 29.15149 9095 ft 262 kts 217°
2026-04-30 22:47 41.03862 29.12432 8470 ft 262 kts 216°
2026-04-30 22:48 41.00851 29.09712 7820 ft 262 kts 216°
2026-04-30 22:49 40.96331 29.05624 6785 ft 263 kts 216°
2026-04-30 22:49 40.91962 29.01271 5717 ft 261 kts 230°
2026-04-30 22:50 40.89354 28.92524 5091 ft 244 kts 256°
2026-04-30 22:51 40.88468 28.88231 5119 ft 242 kts 256°
2026-04-30 22:51 40.87903 28.83890 5106 ft 241 kts 277°
2026-04-30 22:52 40.88289 28.81764 5100 ft 237 kts 296°
2026-04-30 22:52 40.90435 28.78644 5105 ft 230 kts 332°
2026-04-30 22:53 40.93253 28.76668 5110 ft 230 kts 332°
2026-04-30 22:53 40.96022 28.74550 5098 ft 230 kts 332°
2026-04-30 22:53 40.97463 28.73642 5106 ft 230 kts 343°
2026-04-30 22:54 41.00612 28.73227 5010 ft 226 kts
2026-04-30 22:55 41.05140 28.73271 4645 ft 207 kts
2026-04-30 22:55 41.07992 28.73197 4010 ft 203 kts
2026-04-30 22:56 41.10782 28.73131 3453 ft 195 kts
2026-04-30 22:56 41.14683 28.73041 2677 ft 176 kts
2026-04-30 22:57 41.16999 28.72986 2220 ft 156 kts
2026-04-30 22:57 41.19006 28.72940 1840 ft 134 kts
2026-04-30 22:58 41.20872 28.72900 1472 ft 134 kts
2026-04-30 22:59 41.23613 28.72835 904 ft 126 kts
2026-04-30 22:59 41.26105 28.72781 383 ft 121 kts